Tracking 20093 objects as of 16-Dec-2019
HD Live streaming from Space Station
objects crossing your sky now

FR 1

Track FR 1 now!
10-day predictions
FR 1 is classified as:


NORAD ID: 1814
Int'l Code: 1965-101A
Perigee: 675.1 km
Apogee: 683.0 km
Inclination: 75.9 °
Period: 98.2 minutes
Semi major axis: 7050 km
RCS: 0.5793 m2 (medium)
Launch date: December 6, 1965
Source: France (FR)
Launch site: AIR FORCE WESTERN TEST RANGE (AFWTR)
aabbcc
Your satellite tracking list
Your tracking list is empty




NASA's NSSDC Master Catalog

Two Line Element Set (TLE):
1  1814U 65101A   19349.60574906  .00000075  00000-0  16402-4 0  9999
2  1814  75.8677 108.1655 0005597 206.5909 153.4984 14.66611485728507
Source of the keplerian elements: AFSPC